Location: Boiro
(42.6475°N, 8.8834°W)
Time: 12:23:40
(UTC+01:00)

Vanguard 1 Rocket - Pass Details

Date: 07 December 2021
Orbit: 651 x 4224 km, 34.3° (Epoch: 21 January)

Event Time Altitude Azimuth Distance (km) Brightness Sun altitude
Exits shadow 08:20:44 - 276° (W) 5,695 10.9 -5.9°
Reaches altitude 10° 08:23:07 10° 272° (W) 5,278 10.7 -5.5°
Maximum altitude 08:39:14 47° 205° (SSW) 4,381 10.9 -2.9°
Drops below altitude 10° 09:02:52 10° 141° (SE) 7,411 13.6 0.9°
Sets 09:08:58 0° 137° (SE) 8,335 14.4 1.8°
